Location: Paris
(48.8566°N, 2.3522°E)
Time: 22:39:33
(UTC+02:00)

Mayak - Visible Passes

Search period start: 23 May 2018 00:00
Search period end: 02 June 2018 00:00
Orbit: 585 x 603 km, 97.6° (Epoch: 23 May)

Date Brightness Start Highest point End Pass type
(mag) Time Alt. Az. Time Alt. Az. Time Alt. Az.
23 May -1.0 01:04:41 10° NNE 01:08:54 56° E 01:09:36 49° SE visible
23 May 1.0 02:41:12 10° NNW 02:44:07 18° WNW 02:46:14 13° W visible
24 May -1.2 01:13:53 10° NNE 01:18:09 70° ESE 01:18:59 53° SSE visible
24 May 1.2 02:50:46 10° NNW 02:53:14 15° WNW 02:55:37 10° W visible
25 May -1.3 01:23:06 10° NNE 01:27:22 87° E 01:28:22 53° S visible
25 May 1.3 03:00:28 10° NNW 03:02:21 13° WNW 03:04:13 10° W visible
25 May 0.9 23:58:37 10° ENE 00:00:27 12° E 00:01:07 12° E visible
26 May -1.2 01:32:20 10° N 01:36:36 76° WNW 01:37:45 47° SSW visible
26 May 1.4 03:10:34 10° NW 03:11:27 11° NW 03:12:20 10° WNW visible
27 May 0.7 00:07:14 10° NE 00:09:47 15° E 00:10:30 15° E visible
27 May -0.9 01:41:36 10° N 01:45:48 61° WNW 01:47:07 40° SW visible
28 May 0.5 00:16:05 10° NE 00:19:07 19° E 00:19:52 18° ESE visible
28 May -0.6 01:50:54 10° N 01:55:00 49° WNW 01:56:29 33° WSW visible
29 May 0.2 00:25:02 10° NE 00:28:25 23° E 00:29:14 22° ESE visible
29 May -0.2 02:00:13 10° N 02:04:11 40° WNW 02:05:51 27° WSW visible
30 May -0.1 00:34:02 10° NE 00:37:43 28° E 00:38:35 26° ESE visible
30 May 0.1 02:09:33 10° N 02:13:21 33° WNW 02:15:13 22° WSW visible
31 May -0.3 00:43:06 10° NNE 00:47:00 34° E 00:47:57 30° SE visible
31 May 0.4 02:18:55 10° N 02:22:30 27° WNW 02:24:35 18° WSW visible
01 Jun -0.6 00:52:12 10° NNE 00:56:16 42° E 00:57:18 35° SE visible
01 Jun 0.7 02:28:19 10° NNW 02:31:39 23° WNW 02:33:56 15° WSW visible
